Погода в Вахрушево

Россия / Ярославская область     57°18′05″N   39°35′14″E
темп.,
°C
ветер,
м/с
пор.,
м/с
влажн.,
%
обл.,
%
осадки,
мм/ч
давл.,
гПа
погр.,
м
1 декабря, ср
ср100:00−3юз101690100 0.8 9751047
03:00−4юз91491100 1.1 9791087
06:00−3зюз91483100 0.8 9811018
09:00−3зюз61192100 1.2 9841070
12:00−3зюз61092100 1.0 985873
15:00−4зюз6992100 1.9 986766
18:00−4зюз5992100 0.4 988701
21:00−5з51089100 0.5 990663
2 декабря, чт
чт200:00−5з61089100 0.1 992697
03:00−8з6108889 0.1 996496
06:00−9з5109090 0.0 998493
09:00−9зюз4991100 0.0 1000432
12:00−8юз3685100 0.0 1001357
15:00−6ююз4683100 0.0 1001382
18:00−5ююв51195100 0.5 1000494
21:00−5ю5129286 1.1 998536
3 декабря, пт
пт300:00−4ю41096100 0.3 998348
03:00−1ююз51294100 0.6 998484
06:00+1юз61289100 0.1 999624
09:00+1юз61188100 0.1 1001474
12:00+1юз51086100 0.1 1003427
15:00+1ю4991100 0.1 1003308
18:000юв5898100 0.3 1002279
21:000ююв51399100 5.3 999676
4 декабря, сб
сб400:00+1ююз51399100 2.8 997658
03:00+1зюз61098100 3.5 998569
06:00−1зюз5109297 0.3 1000639
09:00−2зюз7128587 0.3 1003699
12:00−3зюз6138792 0.0 1005762
15:00−3зюз6118496 0.0 1007828
18:00−3зюз6108496 0.1 1009814
21:00−5зюз5119185 0.1 1011436
5 декабря, вс
вс500:00−6юз510939 0.0 1012303
03:00−7зюз410949 0.0 1014262
06:00−7юз38969 0.0 1015166
09:00−7юз379586 0.0 1016132
12:00−5зюз259428 0.0 1018229
15:00−6зсз119796 0.0 101910
18:00−8ссз2297100 0.0 102034
21:00−8с1295100 0.0 102173